Tracking 30703 objects as of 14-Jun-2025
HD Live streaming from Space Station
objects crossing your sky now

THOR ABLESTAR DEB

Track THOR ABLESTAR DEB now!
10-day predictions


NORAD ID: 5715
Int'l Code: 1961-015JS
Perigee: 907.4 km
Apogee: 1,151.6 km
Inclination: 66.6 °
Period: 105.6 minutes
Semi major axis: 7400 km
RCS: 0.0104 m2 (small)
Launch date: June 29, 1961
Source: United States (US)
Launch site: AIR FORCE EASTERN TEST RANGE (AFETR)

Note: This is SATELLITE DEBRIS
Your satellite tracking list
Your tracking list is empty




NASA's NSSDC Master Catalog

Two Line Element Set (TLE):
1  5715U 61015JS  25164.23792498  .00000726  00000-0  92028-3 0  9992
2  5715  66.5640 246.9514 0165001 288.2563 101.7273 13.63666378151620
Source of the keplerian elements: AFSPC